Torna al catalogo

ATLAS 5 CENTAUR DEB

LostHEO
NORAD 52045·DEBRIS·🇺🇸 United States

Lanciato Oct 17, 2018 da Cape Canaveral Space Force Station

Loading…

Prossimi Passaggi (prossime 24 ore)

TLE

ObsoletoSource: Space-Track

Epoca: May 14, 2026, 06:32 UTC

1 52045U 18079GP  26134.27264550 -.00000045  00000-0  00000-0 0  9998
2 52045  13.2531  62.0052 4565465 253.0346  53.4037  1.72870191 30108

Traccia ATLAS 5 CENTAUR DEB in tempo reale con AllMySat

Download on the App Store